Aérodrome :
LOGIN :

S'inscrire | Disclaimer

   EN    FR    IT 

 










Légende :    VFR   VFR Marginal   IFR   IFR Intensif   IFR Très Intensif
Visi : 
Plafond : 
>= 8 km
>= 3000ft
5 à 8 km
1000 à 3000 ft
1500m à 5 km
500 à 1000 ft
800 à 1500m
200 à 500 ft
< 800m
< 200 ft
Symboles :   Orages  Brouillard  Fortes neiges  Fortes précipitations  Vent > 20 kt
SIGMETs :   Divers  Orages  Givrage  Turbulence  Onde Orograph.  Cendres Volcan.







- Altitude de l'aérodrome : 614 ft
- Code IATA : CRL


EBCI - Charleroi

DERNIER METAR :
  • 210420Z 17007KT CAVOK 09/07 Q1020 NOSIG

METARs EXPIRÉS :
  • 210350Z 17007KT CAVOK 09/07 Q1020 NOSIG
  • 210320Z 17006KT CAVOK 09/07 Q1020 NOSIG
  • 210250Z 17006KT CAVOK 09/07 Q1020 NOSIG
  • 210220Z 17007KT CAVOK 10/07 Q1020 NOSIG
  • 210150Z 17008KT CAVOK 10/07 Q1021 NOSIG

TAF TAF EBCI
Valide du 21 à 00h jusqu'au 22 à 06h UTC


202310Z 2100/2206 18006KT CAVOK
Pas de NOTAMs connus pour ce terrain.



MET'MAP, la Météo Aéronautique d'un coup d'oeil ! - Copyright ORBIFLY Décembre 2007 - Disclaimer

ORBIFLY MET'MAP TEAM :

Programmation & Développement : Alexandra Zaïnal
Conception & Développement : Baudouin d'Aumeries
Co-Programmation & Développement : Marc-Olivier Méhu
Soutien technique & logistique : Manuel Goepfert

Contact : metmap@orbifly.com




SOURCES & CREDITS :

   NOAA